DEBUT (ORIZURU)

Satellite information

Favourite Embed

Satellite Type and Status

PAYLOADIN ORBIT

Key statistics

Satellite DEBUT (ORIZURU) at a glance.

Uptime

12996

Days in orbit

Revolutions

≈ 12.8

Per day

Orbit

SSO

Sun Synchronous Orbit

Inclination

99.0

Latest

Satellite identification and parameters

Extended collection of information and parameters for DEBUT (ORIZURU).

Object identification

Identified? True

Debris? True

Object name: DEBUT (ORIZURU)

International designator: 1990-013B

Object number (NORAD): 20479

Object ID (CCSDS): 20479

Country: JAPAN (JPN)

Current information (Y/N): Y

RCS size: MEDIUM

Orbital parameters

Period: 112.149 minutes

Inclination: 99.0299 deg

SMA: 7703.523 km

Apoapsis: 1740.889 km

Periapsis: 909.888 km

RAAN: 225.7669 deg

Eccentricy: 0.05393643

Argument of periapsis: 51.387 deg

Mean anomaly: 313.4268 deg

Mean motion: 12.84010792 rev/day

Mean motion (dot): 0.00000049 rev/day2

B* drag term: 0.00017538625 1/REarth

Two-line elements (TLE)

Creation date: Sept. 7, 2025, 3:09 a.m.

Reference frame: TEME

Reference center: EARTH

Epoch: Sept. 6, 2025, 9:42 p.m. UTC

TLE line 0: 0 DEBUT (ORIZURU)

TLE line 1: 1 20479U 90013B 25249.90473202 .00000049 00000-0 17539-3 0 9995

TLE line 2: 2 20479 99.0299 225.7669 0539364 51.3870 313.4268 12.84010792667216

Live tracking on map

Real-time ground track for satellite DEBUT (ORIZURU).

In-orbit conjunctions

There are no conjunctions computed for DEBUT (ORIZURU), at the moment. Check back to stay up to date, as we update our databases every day.

Go to all conjunctions

Associated space launch

Japanese Earth observation satellite

DEBUT (ORIZURU) was lifted into orbit during the mission ‘H-1 | Momo 1b’, on board a H-1 space rocket.

The launch took place on Feb. 7, 1990, 1:33 a.m. from Osaki Launch Complex.

For more information about the launch, click the button.

Launch to space H-1 | Momo 1b
H-1 | Momo 1b

Agency: N/A

Status: Launch Successful

Launch date: Feb. 7, 1990, 1:33 a.m. UTC

Rocket: H-1

Launch pad: Osaki Launch Complex

Location: Tanegashima Space Center, Japan

...

Latest news about this satellite

There are no fresh news available about this satellite. Check back as we update our databases every day.


Newsletter sign-up

Weekly statistics, charts and insights to help you stay on top of the space industry.